FW8585 Weather Reports


time (UTC)temp
F
wind
direction
speed
knots
gust
knots
rain 1hr
in
rain 24hr
in
rain mn
in
humidity
%
barometer
mb
20260502130413 56 3 2.6 4.3 0.00 1.77 0.00 88 1017.8
20260502123410 55 1 0.9 2.6 0.00 2.12 0.00 90 1017.4
20260502122411 54 24 1.7 4.3 0.00 2.19 0.00 91 1017.1
20260502122312 54 23 1.7 4.3 0.00 2.19 0.00 91 1017.0
20260502121311 53 360 0.9 1.7 0.00 2.22 0.00 92 1017.0
20260502121210 53 30 1.7 3.5 0.00 2.22 0.00 92 1017.0
20260502120211 53 8 1.7 4.3 0.00 2.37 0.00 92 1016.9
20260502120111 53 360 0.9 1.7 0.00 2.38 0.00 92 1016.9
20260502115111 53 16 1.7 2.6 0.00 2.42 0.00 92 1016.7
20260502114111 53 3 1.7 4.3 0.00 2.45 0.00 92 1016.7
20260502114011 53 2 1.7 4.3 0.00 2.45 0.00 92 1016.6
20260502112011 53 8 0.9 2.6 0.00 2.51 0.00 92 1016.5
20260502111011 53 14 1.7 2.6 0.00 2.58 0.00 92 1016.3
20260502105110 53 4 2.6 3.5 0.00 2.61 0.00 92 1016.1
20260502104210 53 23 2.6 3.5 0.00 2.64 0.00 92 1016.1
20260502103209 53 354 0.9 2.6 0.00 2.66 0.00 92 1016.2
20260502102309 53 360 0.9 1.7 0.00 2.67 0.00 91 1015.9
20260502102212 53 339 0.0 1.7 0.00 2.67 0.00 91 1015.9
20260502102113 53 356 0.0 1.7 0.00 2.67 0.00 91 1016.0
20260502101211 54 6 2.6 3.5 0.00 2.68 0.00 91 1015.8
20260502091310 54 15 0.9 3.5 0.00 2.99 0.00 92 1014.7
20260502090311 54 22 0.9 1.7 0.00 3.02 0.00 92 1014.6
20260502071312 56 2 0.0 3.5 0.00 3.58 0.00 89 1014.8
20260502070311 56 34 0.9 2.6 0.00 3.58 0.00 88 1014.7
20260502065310 56 14 0.0 1.7 0.00 3.58 0.00 89 1014.5
20260502063312 56 40 1.7 4.3 0.00 3.58 0.00 90 1014.4
20260502061410 56 101 2.6 6.1 0.00 3.58 0.00 91 1014.3
20260502055409 56 93 3.5 7.0 0.00 3.60 0.00 91 1014.3
20260502053511 56 70 1.7 4.3 0.00 3.60 0.00 91 1014.3
20260502052511 57 67 1.7 6.1 0.00 3.61 0.00 91 1014.5
20260502051510 57 41 0.9 4.3 0.00 3.68 0.00 91 1014.5
20260502050608 57 41 4.3 9.6 0.00 3.70 0.00 92 1014.4
20260502045623 57 46 1.7 5.2 0.00 3.72 3.72 92 1014.4
20260502044722 57 41 3.5 4.3 0.00 3.72 3.72 92 1014.4
20260502043723 58 76 1.7 4.3 0.00 3.72 3.72 92 1014.0
20260502042723 58 84 1.7 5.2 0.00 3.77 3.72 92 1014.3
20260502041723 58 65 2.6 9.6 0.00 3.78 3.72 92 1014.4
20260502040624 58 28 2.6 6.1 0.00 3.78 3.72 92 1014.5
20260502035622 58 59 2.6 6.1 0.00 3.78 3.72 93 1014.3
20260502033821 58 41 3.5 7.0 0.00 3.78 3.72 92 1014.0
20260502030922 58 19 0.9 5.2 0.04 3.78 3.72 93 1013.5
20260502025824 58 37 0.9 4.3 0.07 3.78 3.72 94 1013.0
20260502024822 58 56 1.7 3.5 0.09 3.78 3.72 94 1012.9
20260502024723 58 96 0.9 3.5 0.10 3.78 3.72 94 1012.8
20260502023823 58 37 1.7 4.3 0.14 3.78 3.72 94 1013.3
20260502022822 58 31 2.6 5.2 0.18 3.78 3.71 94 1012.9
20260502021823 58 86 0.0 1.7 0.17 3.75 3.69 94 1013.0
20260502020824 58 17 3.5 6.1 0.17 3.74 3.67 94 1012.9
20260502020725 58 56 2.6 6.1 0.16 3.73 3.67 94 1013.0
20260502015822 58 352 0.9 4.3 0.15 3.71 3.64 94 1012.7
20260502014823 58 39 2.6 4.3 0.13 3.69 3.62 94 1012.4
20260502013824 58 29 4.3 7.0 0.10 3.64 3.58 93 1011.9
20260502012823 59 40 2.6 6.1 0.08 3.60 3.54 93 1011.9
20260502011824 59 15 5.2 7.8 0.08 3.58 3.52 93 1012.4
20260502010823 59 19 3.5 6.1 0.09 3.57 3.51 93 1011.9
20260502005824 60 24 3.5 7.0 0.10 3.56 3.50 93 1011.0
20260502005723 60 25 5.2 10.4 0.10 3.56 3.50 93 1010.9
20260502004622 60 23 2.6 4.3 0.11 3.55 3.49 94 1010.9
20260502003623 60 8 0.9 3.5 0.11 3.54 3.48 94 1011.6
20260502002622 60 3 1.7 3.5 0.10 3.52 3.46 94 1011.3
20260502001624 60 29 1.7 4.3 0.12 3.50 3.43 94 1011.2
20260502000624 60 20 1.7 4.3 0.19 3.48 3.42 94 1010.8
20260501234623 60 32 0.9 5.2 0.15 3.44 3.38 94 1010.6
20260501233623 60 86 0.0 0.0 0.14 3.43 3.37 94 1010.2
20260501232522 60 100 1.7 2.6 0.13 3.41 3.35 93 1010.2
20260501231621 60 128 4.3 7.0 0.10 3.38 3.31 92 1010.5
20260501230623 61 107 0.9 3.5 0.02 3.29 3.23 92 1010.6
20260501225523 61 29 1.7 6.1 0.02 3.29 3.23 93 1009.0
20260501224522 61 121 7.8 11.3 0.03 3.29 3.23 93 1008.6
20260501223523 62 109 7.0 11.3 0.05 3.29 3.22 93 1008.8
20260501222621 62 119 7.8 11.3 0.04 3.28 3.22 94 1008.7
20260501222522 62 97 3.5 8.7 0.04 3.28 3.22 94 1008.8
20260501221522 62 82 2.6 5.2 0.04 3.28 3.22 94 1009.7
20260501220522 62 44 0.9 3.5 0.05 3.27 3.21 93 1010.5
20260501215522 62 24 1.7 3.5 0.07 3.27 3.21 93 1010.4
20260501213625 62 13 0.9 4.3 0.08 3.24 3.18 93 1010.2
20260501212641 62 44 0.9 1.7 0.10 3.24 3.18 93 1009.7
20260501211622 62 66 1.7 5.2 0.14 3.24 3.18 94 1008.6
20260501211522 62 70 2.6 7.8 0.14 3.24 3.18 94 1008.6
20260501210422 62 104 1.7 3.5 0.13 3.22 3.16 94 1008.4
20260501205521 62 48 2.6 6.1 0.14 3.20 3.14 93 1009.5
20260501204621 63 60 1.7 7.8 0.14 3.19 3.13 94 1008.8
20260501203622 63 97 4.3 7.0 0.11 3.16 3.10 94 1008.8
20260501202639 63 57 1.7 6.1 0.10 3.14 3.08 94 1008.4
20260501201622 63 23 4.3 8.7 0.06 3.10 3.04 93 1008.9
20260501200722 64 6 4.3 7.8 0.07 3.09 3.03 93 1008.8
20260501195721 64 24 1.7 4.3 0.06 3.06 3.00 93 1008.4
20260501194723 64 63 0.9 4.3 0.09 3.05 2.99 94 1008.5
20260501193822 64 121 1.7 4.3 0.12 3.05 2.99 94 1008.7
20260501191823 63 107 2.6 4.3 0.16 3.04 2.98 95 1008.5
20260501190824 63 111 0.0 1.7 0.15 3.02 2.96 94 1007.8
20260501185822 63 110 6.1 9.6 0.14 3.00 2.94 94 1008.1
20260501184823 64 47 0.0 2.6 0.12 2.96 2.90 94 1008.5
20260501183821 63 3 0.9 3.5 0.09 2.93 2.87 94 1008.7
20260501183721 63 1 4.3 6.1 0.09 2.93 2.87 94 1008.5
20260501182722 64 127 10.4 13.0 0.04 2.88 2.82 94 1006.5
20260501181722 64 122 6.1 7.8 0.03 2.87 2.81 94 1007.3
20260501181622 64 119 6.1 9.6 0.03 2.87 2.81 94 1007.1